1500069600.65,31214,18.56,73666.5,-0.33,-1.25,-1.25,0,*65
1500069601.84,31215,18.56,73664.3,-0.33,-1.33,-1.33,0,*64
1500069603.09,31216,18.63,73664.3,-0.33,-1.35,-1.35,0,*67
1500069604.33,31217,18.56,73668.8,-0.33,-1.43,-1.35,0,*67
1500069605.58,31218,18.56,73664.5,-0.33,-1.47,-1.47,0,*69
1500069606.82,31219,18.56,73666.5,-0.35,-1.55,-1.47,0,*6D
1500069608.06,31220,18.63,73666.3,-0.35,-1.55,-1.47,0,*67
1500069609.3,31221,18.56,73664.3,-0.35,-1.47,-1.55,0,*66
1500069610.52,31222,18.56,73658.8,-0.37,-1.47,-1.51,0,*63
1500069611.79,31223,18.56,73664.8,-0.35,-1.47,-1.47,0,*67
1500069612.97,31224,18.56,73662.3,-0.37,-1.59,-1.59,0,*62
1500069614.16,31225,18.63,73666.8,-0.37,-1.63,-1.71,0,*60
1500069615.35,31226,18.56,73660.0,-0.37,-1.63,-1.63,0,*60
1500069616.55,31227,18.56,73666.0,-0.37,-1.71,-1.71,0,*61
1500069617.74,31228,18.63,73664.5,-0.37,-1.63,-1.63,0,*6E
1500069618.93,31229,18.56,73664.0,-0.37,-1.71,-1.63,0,*6C
1500069620.14,31230,18.56,73660.8,-0.39,-1.51,-1.63,0,*68
1500069621.35,31231,18.56,73666.5,-0.39,-1.51,-1.59,0,*60
1500069622.56,31232,18.56,73662.8,-0.39,-1.51,-1.51,0,*6B
1500069623.77,31233,18.56,73660.5,-0.39,-1.51,-1.59,0,*62
1500069625.01,31234,18.56,73664.3,-0.39,-1.51,-1.47,0,*6A
1500069626.27,31235,18.56,73664.5,-0.39,-1.35,-1.35,0,*6C
1500069627.54,31236,18.56,73664.3,-0.43,-1.39,-1.39,0,*62
1500069628.82,31237,18.63,73666.3,-0.39,-1.39,-1.35,0,*62
1500069630.03,31238,18.56,73662.0,-0.39,-1.25,-1.17,0,*60
1500069631.25,31239,18.56,73662.8,-0.39,-1.29,-1.29,0,*60
1500069632.49,31240,18.56,73664.3,-0.43,-1.33,-1.39,0,*69
1500069633.76,31241,18.56,73666.5,-0.39,-1.35,-1.35,0,*6F
1500069635.03,31242,18.56,73664.0,-0.39,-1.39,-1.35,0,*60
1500069636.25,31243,18.56,73664.8,-0.43,-1.33,-1.33,0,*60
1500069637.48,31244,18.56,73660.5,-0.39,-1.35,-1.29,0,*67
1500069638.76,31245,18.56,73660.3,-0.43,-1.39,-1.39,0,*66
1500069639.99,31246,18.56,73660.0,-0.39,-1.35,-1.29,0,*65
1500069641.21,31247,18.56,73660.0,-0.43,-1.33,-1.29,0,*6F
1500069642.42,31248,18.56,73662.5,-0.43,-1.33,-1.33,0,*6B
1500069643.69,31249,18.56,73660.3,-0.39,-1.35,-1.35,0,*67
1500069644.96,31250,18.56,73660.8,-0.39,-1.35,-1.35,0,*6F
1500069646.19,31251,18.63,73666.8,-0.39,-1.51,-1.47,0,*69
1500069647.4,31252,18.63,73666.8,-0.43,-1.55,-1.55,0,*60
1500069648.61,31253,18.56,73660.8,-0.43,-1.55,-1.55,0,*61
1500069649.88,31254,18.56,73660.0,-0.43,-1.43,-1.43,0,*66
1500069651.15,31255,18.56,73664.3,-0.43,-1.43,-1.43,0,*67
1500069652.36,31256,18.56,73662.5,-0.43,-1.33,-1.33,0,*64
1500069653.63,31257,18.56,73662.5,-0.43,-1.39,-1.39,0,*65
1500069654.9,31258,18.56,73664.3,-0.43,-1.39,-1.39,0,*6A
1500069656.11,31259,18.56,73660.8,-0.43,-1.33,-1.33,0,*6B
1500069657.34,31260,18.56,73662.0,-0.39,-1.17,-1.17,0,*6C
1500069658.56,31261,18.56,73664.3,-0.43,-1.21,-1.21,0,*60
1500069659.78,31262,18.56,73664.0,-0.43,-1.21,-1.21,0,*63
1500069661.04,31263,18.56,73664.8,-0.39,-1.13,-1.13,0,*6F
1500069662.3,31264,18.56,73662.8,-0.39,-1.09,-1.13,0,*63
1500069663.56,31265,18.63,73666.3,-0.39,-1.13,-1.09,0,*62
1500069664.78,31266,18.56,73664.3,-0.43,-1.17,-1.17,0,*67
1500069666.04,31267,18.56,73666.3,-0.39,-1.09,-1.01,0,*63
1500069667.3,31268,18.56,73664.3,-0.39,-1.01,-1.01,0,*64
1500069668.56,31269,18.56,73666.0,-0.39,-1.01,-0.97,0,*5B
1500069669.82,31270,18.56,73664.0,-0.39,-0.97,-1.01,0,*53
1500069671.08,31271,18.56,73664.8,-0.39,-1.01,-0.97,0,*52
1500069672.34,31272,18.56,73666.5,-0.43,-1.13,-1.13,0,*62
1500069673.6,31273,18.56,73662.5,-0.39,-1.01,-0.97,0,*50
1500069674.86,31274,18.56,73664.8,-0.39,-1.01,-1.05,0,*6D
1500069676.13,31275,18.56,73666.3,-0.39,-1.01,-1.01,0,*68
1500069677.38,31276,18.56,73664.0,-0.39,-0.97,-0.97,0,*6B
1500069678.64,31277,18.56,73664.8,-0.39,-1.01,-0.89,0,*5B
1500069679.87,31278,18.56,73664.5,-0.37,-0.89,-0.89,0,*6B
1500069681.1,31279,18.63,73666.0,-0.37,-0.89,-0.89,0,*6A
1500069682.32,31280,18.56,73666.0,-0.37,-0.85,-0.89,0,*60
1500069683.55,31281,18.56,73666.0,-0.37,-0.97,-0.89,0,*62
1500069684.79,31282,18.56,73666.8,-0.37,-1.01,-0.89,0,*5F
1500069686.01,31283,18.56,73664.5,-0.35,-0.93,-0.81,0,*6E
1500069687.24,31284,18.56,73664.3,-0.37,-0.89,-0.89,0,*68
1500069688.49,31285,18.56,73666.0,-0.35,-0.85,-0.85,0,*6B
1500069689.75,31286,18.56,73666.8,-0.35,-0.85,-0.85,0,*68
1500069691.0,31287,18.56,73664.3,-0.35,-0.97,-0.93,0,*6D
1500069692.26,31288,18.56,73664.0,-0.35,-0.97,-0.85,0,*65
1500069693.51,31289,18.56,73664.8,-0.35,-0.93,-0.93,0,*67
1500069694.76,31290,18.56,73664.3,-0.35,-0.85,-0.85,0,*6F
1500069695.97,31291,18.56,73666.5,-0.35,-0.81,-0.81,0,*6E
1500069697.18,31292,18.56,73666.0,-0.37,-0.89,-0.77,0,*6E
1500069698.43,31293,18.56,73666.3,-0.35,-0.85,-0.85,0,*6C
1500069699.66,31294,18.56,73666.0,-0.35,-0.85,-0.81,0,*6F
1500069700.87,31295,18.56,73666.3,-0.35,-0.81,-0.81,0,*6A
1500069702.12,31296,18.56,73664.5,-0.35,-0.85,-0.85,0,*69
1500069703.36,31297,18.63,73666.8,-0.33,-0.97,-0.97,0,*6E
1500069704.61,31298,18.56,73664.5,-0.33,-1.05,-1.05,0,*61
1500069705.84,31299,18.56,73668.3,-0.33,-1.05,-0.97,0,*5A
1500069707.05,31300,18.56,73668.8,-0.31,-0.81,-0.81,0,*63
1500069708.26,31301,18.56,73668.8,-0.33,-0.81,-0.85,0,*64
1500069709.49,31302,18.56,73668.0,-0.33,-0.93,-0.93,0,*63
1500069710.71,31303,18.56,73666.3,-0.33,-0.93,-0.85,0,*65
1500069711.94,31304,18.56,73670.0,-0.33,-0.85,-0.93,0,*62
1500069713.17,31305,18.56,73664.3,-0.33,-0.93,-0.93,0,*64
1500069714.4,31306,18.56,73668.5,-0.31,-0.89,-0.81,0,*6D
1500069715.65,31307,18.56,73666.0,-0.31,-0.93,-0.93,0,*64
1500069716.9,31308,18.56,73670.3,-0.31,-0.93,-1.01,0,*51
1500069718.14,31309,18.56,73666.3,-0.33,-1.09,-1.09,0,*68
1500069719.38,31310,18.56,73664.5,-0.33,-1.09,-1.09,0,*60
1500069720.62,31311,18.56,73666.3,-0.33,-1.09,-1.09,0,*61
1500069721.88,31312,18.56,73664.3,-0.31,-1.05,-1.09,0,*6C
1500069723.1,31313,18.56,73664.3,-0.33,-1.21,-1.13,0,*62
1500069724.34,31314,18.56,73664.5,-0.33,-1.13,-1.13,0,*64
1500069725.58,31315,18.56,73666.0,-0.33,-1.13,-1.13,0,*65
1500069726.82,31316,18.56,73666.3,-0.31,-1.17,-1.09,0,*6B
1500069728.02,31317,18.56,73668.0,-0.33,-1.25,-1.21,0,*63
1500069729.22,31318,18.56,73666.8,-0.33,-1.21,-1.21,0,*68
1500069730.43,31319,18.56,73666.5,-0.33,-1.21,-1.13,0,*68
1500069731.67,31320,18.56,73666.5,-0.33,-1.13,-1.13,0,*63
1500069732.91,31321,18.56,73668.0,-0.33,-1.13,-1.13,0,*62
1500069734.17,31322,18.56,73668.5,-0.35,-1.13,-1.13,0,*67
1500069735.41,31323,18.56,73670.3,-0.33,-1.13,-1.09,0,*6B
1500069736.65,31324,18.56,73668.5,-0.33,-1.09,-1.05,0,*6B
1500069737.89,31325,18.56,73670.3,-0.33,-1.09,-1.09,0,*66
1500069739.14,31326,18.63,73670.5,-0.33,-1.05,-1.05,0,*65
1500069740.4,31327,18.56,73666.3,-0.35,-1.09,-1.09,0,*62
1500069741.67,31328,18.56,73670.0,-0.35,-1.09,-1.05,0,*61
1500069742.9,31329,18.56,73664.8,-0.33,-1.13,-1.13,0,*6A
1500069744.14,31330,18.56,73666.3,-0.33,-1.09,-1.13,0,*69
1500069745.38,31331,18.56,73664.0,-0.33,-1.09,-1.09,0,*63
1500069746.61,31332,18.56,73666.5,-0.33,-1.09,-0.97,0,*56
1500069747.86,31333,18.56,73664.3,-0.33,-1.05,-1.09,0,*6D
1500069749.09,31334,18.56,73666.8,-0.33,-1.09,-1.09,0,*66
1500069750.33,31335,18.56,73664.5,-0.33,-1.09,-1.09,0,*67
1500069751.55,31336,18.63,73666.8,-0.33,-1.13,-1.21,0,*65
1500069752.79,31337,18.56,73662.5,-0.35,-1.25,-1.13,0,*66
1500069754.03,31338,18.56,73664.3,-0.35,-1.21,-1.13,0,*6D
1500069755.27,31339,18.56,73660.3,-0.35,-1.21,-1.13,0,*6C
1500069756.53,31340,18.56,73660.8,-0.35,-1.13,-1.13,0,*63
1500069757.79,31341,18.63,73666.5,-0.35,-1.13,-1.13,0,*62
1500069759.03,31342,18.56,73662.8,-0.33,-1.13,-1.13,0,*67
1500069760.25,31343,18.56,73664.5,-0.35,-1.21,-1.21,0,*60
1500069761.44,31344,18.56,73660.8,-0.37,-1.25,-1.25,0,*65
1500069762.7,31345,18.56,73666.0,-0.35,-1.13,-1.13,0,*66
1500069763.96,31346,18.56,73664.5,-0.35,-1.13,-1.13,0,*65
1500069765.18,31347,18.56,73666.3,-0.37,-1.13,-1.17,0,*62
1500069766.44,31348,18.56,73666.3,-0.35,-1.09,-1.09,0,*6B
1500069767.7,31349,18.56,73668.3,-0.35,-1.13,-1.09,0,*61
1500069768.94,31350,18.56,73668.0,-0.35,-1.21,-1.13,0,*63
1500069770.18,31351,18.56,73670.8,-0.35,-1.35,-1.25,0,*62
1500069771.42,31352,18.56,73668.5,-0.35,-1.21,-1.13,0,*61
1500069772.61,31353,18.56,73668.0,-0.37,-1.17,-1.25,0,*62
1500069773.8,31354,18.56,73666.3,-0.37,-1.29,-1.25,0,*68
1500069775.01,31355,18.56,73664.8,-0.35,-1.25,-1.25,0,*67
1500069776.2,31356,18.56,73668.5,-0.37,-1.29,-1.25,0,*6A
1500069777.44,31357,18.56,73666.8,-0.35,-1.21,-1.13,0,*64
1500069778.7,31358,18.63,73668.3,-0.35,-1.13,-1.13,0,*6A
1500069779.92,31359,18.56,73660.5,-0.35,-1.21,-1.21,0,*6B
1500069781.16,31360,18.56,73664.8,-0.37,-1.35,-1.35,0,*63
1500069782.4,31361,18.56,73664.5,-0.37,-1.35,-1.35,0,*62
1500069783.62,31362,18.56,73666.5,-0.35,-1.25,-1.25,0,*63
1500069784.84,31363,18.56,73664.5,-0.35,-1.21,-1.21,0,*62
1500069786.03,31364,18.56,73664.5,-0.37,-1.17,-1.17,0,*67
1500069787.26,31365,18.56,73666.5,-0.39,-1.17,-1.17,0,*68
1500069788.52,31366,18.56,73666.5,-0.35,-1.09,-1.05,0,*6B
1500069789.75,31367,18.56,73666.3,-0.37,-1.09,-1.13,0,*6F
1500069791.02,31368,18.56,73668.0,-0.35,-1.05,-1.09,0,*65
1500069792.26,31369,18.56,73670.8,-0.37,-1.01,-1.09,0,*62
1500069793.53,31370,18.56,73666.8,-0.35,-1.05,-1.09,0,*6C
1500069794.76,31371,18.56,73668.3,-0.37,-1.13,-1.09,0,*68
1500069796.0,31372,18.56,73666.3,-0.37,-1.13,-1.13,0,*60
1500069797.26,31373,18.56,73666.5,-0.35,-1.09,-1.05,0,*6F
1500069798.5,31374,18.56,73662.0,-0.37,-1.13,-1.13,0,*66
1500069799.76,31375,18.56,73664.0,-0.35,-1.09,-1.09,0,*65
1500069801.03,31376,18.56,73664.8,-0.35,-1.05,-1.05,0,*66
1500069802.3,31377,18.56,73666.8,-0.35,-1.05,-1.05,0,*67
1500069803.56,31378,18.56,73660.5,-0.35,-0.97,-0.97,0,*68
1500069804.8,31379,18.56,73664.3,-0.37,-1.01,-1.01,0,*6B
1500069806.05,31380,18.56,73664.8,-0.35,-0.97,-0.93,0,*6B
1500069807.3,31381,18.56,73664.3,-0.35,-0.93,-0.97,0,*6A
1500069808.55,31382,18.56,73666.5,-0.35,-0.85,-0.93,0,*6A
1500069809.78,31383,18.56,73666.3,-0.37,-0.85,-0.89,0,*62
1500069811.03,31384,18.56,73664.0,-0.35,-0.93,-0.93,0,*6B
1500069812.29,31385,18.56,73666.0,-0.35,-0.97,-0.97,0,*6A
1500069813.55,31386,18.56,73662.5,-0.35,-1.05,-0.97,0,*53
1500069814.81,31387,18.56,73666.3,-0.35,-1.05,-0.93,0,*56
1500069816.06,31388,18.56,73664.3,-0.35,-0.93,-0.93,0,*67
1500069817.31,31389,18.56,73662.8,-0.35,-0.93,-0.97,0,*62
1500069818.56,31390,18.56,73660.3,-0.35,-1.09,-0.93,0,*5C
1500069819.82,31391,18.56,73660.8,-0.35,-1.05,-0.97,0,*55
1500069821.09,31392,18.56,73662.3,-0.35,-0.97,-1.05,0,*56
1500069822.34,31393,18.56,73660.3,-0.35,-0.97,-0.97,0,*6D
1500069823.58,31394,18.56,73660.8,-0.33,-1.05,-0.93,0,*52
1500069824.82,31395,18.56,73660.8,-0.33,-0.97,-1.05,0,*57
1500069826.07,31396,18.56,73660.3,-0.31,-0.93,-0.93,0,*6C
1500069827.3,31397,18.56,73662.5,-0.33,-0.93,-0.93,0,*6F
1500069828.53,31398,18.56,73660.3,-0.33,-0.97,-0.93,0,*64
1500069829.76,31399,18.56,73658.8,-0.33,-0.93,-0.93,0,*61
1500069830.99,31400,18.56,73660.8,-0.33,-0.97,-0.97,0,*66
1500069832.25,31401,18.56,73660.8,-0.35,-0.97,-1.05,0,*5B
1500069833.49,31402,18.56,73664.8,-0.33,-1.05,-0.97,0,*5E
1500069834.72,31403,18.56,73660.3,-0.33,-0.93,-0.93,0,*65
1500069835.97,31404,18.56,73660.5,-0.31,-0.89,-0.89,0,*60
1500069837.22,31405,18.56,73664.3,-0.31,-0.89,-0.93,0,*6A
1500069838.45,31406,18.56,73662.0,-0.31,-0.81,-0.89,0,*6A
1500069839.7,31407,18.56,73666.5,-0.31,-0.93,-0.93,0,*63
1500069840.93,31408,18.56,73660.3,-0.33,-0.93,-0.93,0,*6E
1500069842.16,31409,18.56,73660.0,-0.33,-0.97,-0.93,0,*6B
1500069843.41,31410,18.56,73662.5,-0.31,-0.89,-0.89,0,*65
1500069844.64,31411,18.56,73662.3,-0.33,-0.97,-0.97,0,*66
1500069845.89,31412,18.56,73658.5,-0.31,-0.93,-0.93,0,*67
1500069847.13,31413,18.56,73658.0,-0.33,-1.05,-0.97,0,*5E
1500069848.36,31414,18.56,73658.3,-0.33,-0.93,-0.93,0,*63
1500069849.61,31415,18.56,73658.8,-0.31,-0.89,-0.89,0,*60
1500069850.86,31416,18.56,73660.3,-0.31,-0.89,-0.93,0,*68
1500069852.12,31417,18.56,73660.8,-0.31,-0.93,-1.01,0,*58
1500069853.37,31418,18.56,73660.0,-0.31,-0.93,-0.89,0,*66
1500069854.62,31419,18.56,73660.0,-0.31,-0.93,-0.93,0,*6C
1500069855.86,31420,18.56,73662.3,-0.31,-0.93,-0.93,0,*66
1500069857.1,31421,18.56,73660.3,-0.31,-0.89,-0.81,0,*6F
1500069858.32,31422,18.56,73658.8,-0.33,-0.93,-0.93,0,*66
1500069859.55,31423,18.56,73664.0,-0.33,-0.85,-0.85,0,*67
1500069860.76,31424,18.56,73660.8,-0.31,-0.77,-0.69,0,*6D
1500069861.97,31425,18.56,73656.3,-0.31,-0.77,-0.69,0,*6C
1500069863.16,31426,18.56,73664.0,-0.33,-0.81,-0.73,0,*6F
1500069864.36,31427,18.56,73664.5,-0.31,-0.69,-0.69,0,*61
1500069865.57,31428,18.56,73664.0,-0.31,-0.69,-0.69,0,*6E
1500069866.78,31429,18.56,73664.8,-0.31,-0.81,-0.81,0,*6F
1500069867.98,31430,18.56,73664.3,-0.31,-0.69,-0.65,0,*6B
1500069869.18,31431,18.56,73664.3,-0.27,-0.65,-0.61,0,*65
1500069870.36,31432,18.56,73666.8,-0.29,-0.61,-0.61,0,*6C
1500069871.53,31433,18.56,73660.3,-0.29,-0.61,-0.65,0,*69
1500069872.71,31434,18.56,73666.8,-0.29,-0.73,-0.65,0,*6D
1500069873.92,31435,18.56,73664.3,-0.27,-0.73,-0.65,0,*62
1500069875.11,31436,18.56,73666.0,-0.27,-0.61,-0.61,0,*66
1500069876.31,31437,18.56,73666.3,-0.27,-0.61,-0.65,0,*63
1500069877.49,31438,18.56,73662.5,-0.29,-0.65,-0.73,0,*61
1500069878.7,31439,18.56,73660.8,-0.27,-0.73,-0.73,0,*69
1500069879.89,31440,18.56,73664.0,-0.29,-0.73,-0.65,0,*6E
1500069881.09,31441,18.56,73664.3,-0.27,-0.65,-0.65,0,*66
1500069882.27,31442,18.56,73664.8,-0.29,-0.65,-0.61,0,*6F
1500069883.47,31443,18.56,73664.5,-0.27,-0.73,-0.61,0,*67
1500069884.67,31444,18.56,73664.5,-0.27,-0.65,-0.65,0,*63
1500069885.87,31445,18.56,73664.0,-0.27,-0.65,-0.65,0,*62
1500069887.08,31446,18.56,73662.0,-0.27,-0.77,-0.73,0,*65
1500069888.29,31447,18.56,73664.5,-0.27,-0.77,-0.77,0,*60
1500069889.49,31448,18.56,73666.0,-0.27,-0.77,-0.77,0,*6F
1500069890.68,31449,18.56,73666.3,-0.25,-0.73,-0.81,0,*61
1500069891.9,31450,18.56,73666.8,-0.25,-0.93,-0.85,0,*63
1500069893.15,31451,18.56,73666.0,-0.27,-0.85,-0.85,0,*67
1500069894.4,31452,18.56,73666.0,-0.27,-0.85,-0.85,0,*64
1500069895.61,31453,18.56,73664.5,-0.27,-0.77,-0.77,0,*65
1500069896.82,31454,18.56,73664.3,-0.27,-0.77,-0.73,0,*66
1500069898.04,31455,18.56,73664.0,-0.27,-0.77,-0.85,0,*6E
1500069899.29,31456,18.56,73666.0,-0.27,-0.89,-0.85,0,*6C
1500069900.54,31457,18.56,73666.3,-0.27,-0.85,-0.85,0,*61
1500069901.77,31458,18.56,73664.5,-0.29,-0.89,-0.89,0,*60
1500069903.02,31459,18.56,73664.3,-0.27,-0.85,-0.85,0,*6F
1500069904.21,31460,18.56,73664.0,-0.25,-0.81,-0.81,0,*67
1500069905.39,31461,18.56,73666.8,-0.25,-0.81,-0.69,0,*60
1500069906.6,31462,18.56,73664.0,-0.27,-0.77,-0.73,0,*63
1500069907.81,31463,18.56,73666.0,-0.27,-0.77,-0.77,0,*66
1500069909.04,31464,18.56,73664.5,-0.25,-0.85,-0.85,0,*63
1500069910.27,31465,18.56,73664.0,-0.25,-0.97,-0.97,0,*62
1500069911.5,31466,18.56,73664.5,-0.25,-0.97,-0.97,0,*61
1500069912.73,31467,18.56,73664.5,-0.25,-0.97,-0.97,0,*60
1500069913.98,31468,18.56,73664.5,-0.23,-0.97,-0.97,0,*69
1500069915.21,31469,18.56,73664.5,-0.25,-0.93,-0.93,0,*6E
1500069916.4,31470,18.56,73660.5,-0.25,-0.81,-0.81,0,*66
1500069917.59,31471,18.56,73666.0,-0.25,-0.81,-0.73,0,*6A
1500069918.77,31472,18.56,73662.8,-0.25,-0.69,-0.69,0,*64
1500069919.96,31473,18.56,73664.8,-0.25,-0.73,-0.69,0,*6E
1500069921.14,31474,18.56,73664.3,-0.25,-0.69,-0.61,0,*6A
1500069922.32,31475,18.56,73666.3,-0.25,-0.73,-0.57,0,*65
1500069923.5,31476,18.56,73670.3,-0.25,-0.61,-0.61,0,*60
1500069924.69,31477,18.56,73670.3,-0.23,-0.61,-0.69,0,*6F
1500069925.88,31478,18.56,73670.8,-0.25,-0.73,-0.73,0,*6E
1500069927.07,31479,18.56,73668.5,-0.25,-0.73,-0.69,0,*64
1500069928.28,31480,18.56,73666.3,-0.23,-0.73,-0.69,0,*64
1500069929.49,31481,18.56,73666.3,-0.23,-0.73,-0.73,0,*6E
1500069930.7,31482,18.56,73668.3,-0.25,-0.85,-0.81,0,*6F
1500069931.9,31483,18.56,73670.3,-0.25,-0.85,-0.81,0,*6E
1500069933.11,31484,18.56,73668.5,-0.23,-0.81,-0.73,0,*66
1500069934.3,31485,18.56,73666.3,-0.25,-0.81,-0.81,0,*6C
1500069935.55,31486,18.56,73666.3,-0.23,-0.85,-0.85,0,*69
1500069936.76,31487,18.56,73666.5,-0.23,-0.81,-0.81,0,*68
1500069937.96,31488,18.56,73662.5,-0.25,-0.81,-0.85,0,*65
1500069939.15,31489,18.56,73664.5,-0.25,-0.81,-0.81,0,*60
1500069940.34,31490,18.56,73662.3,-0.25,-0.69,-0.73,0,*63
1500069941.55,31491,18.56,73660.8,-0.23,-0.81,-0.73,0,*62
1500069942.74,31492,18.56,73662.0,-0.25,-0.73,-0.69,0,*61
1500069943.94,31493,18.56,73662.5,-0.23,-0.69,-0.73,0,*66
1500069945.15,31494,18.56,73664.5,-0.23,-0.73,-0.73,0,*6A
1500069946.38,31495,18.56,73662.8,-0.25,-0.85,-0.85,0,*6D
1500069947.61,31496,18.56,73662.8,-0.23,-0.85,-0.81,0,*6C
1500069948.82,31497,18.56,73666.0,-0.25,-0.85,-0.81,0,*6B
1500069950.02,31498,18.56,73664.5,-0.23,-0.81,-0.81,0,*66
1500069951.23,31499,18.56,73664.3,-0.23,-0.69,-0.73,0,*6C
1500069952.42,31500,18.56,73664.8,-0.25,-0.73,-0.69,0,*6B
1500069953.63,31501,18.56,73664.5,-0.23,-0.73,-0.73,0,*67
1500069954.88,31502,18.56,73668.0,-0.23,-0.85,-0.85,0,*64
1500069956.13,31503,18.56,73668.8,-0.23,-0.97,-0.93,0,*61
1500069957.39,31504,18.56,73662.0,-0.23,-0.97,-1.01,0,*5C
1500069958.62,31505,18.56,73668.0,-0.25,-0.97,-1.09,0,*53
1500069959.86,31506,18.56,73666.8,-0.25,-1.01,-1.01,0,*66
1500069961.11,31507,18.56,73666.5,-0.25,-1.01,-1.01,0,*67
1500069962.35,31508,18.56,73664.5,-0.25,-1.01,-1.01,0,*68
1500069963.59,31509,18.56,73662.5,-0.25,-1.01,-1.01,0,*69
1500069964.83,31510,18.56,73658.8,-0.25,-1.01,-1.09,0,*69
1500069966.07,31511,18.56,73658.5,-0.25,-1.01,-1.01,0,*60
1500069967.31,31512,18.56,73660.0,-0.25,-1.01,-1.01,0,*63
1500069968.55,31513,18.56,73660.3,-0.25,-1.09,-1.01,0,*6A
1500069969.77,31514,18.56,73660.3,-0.25,-0.93,-0.93,0,*65
1500069971.0,31515,18.56,73662.5,-0.25,-0.97,-0.97,0,*64
1500069972.26,31516,18.56,73660.5,-0.23,-0.97,-0.97,0,*61
1500069973.48,31517,18.56,73664.5,-0.25,-0.93,-0.97,0,*62
1500069974.71,31518,18.56,73660.0,-0.25,-0.93,-0.97,0,*6D
1500069975.94,31519,18.56,73662.0,-0.25,-0.97,-0.93,0,*6C
1500069977.17,31520,18.56,73666.5,-0.25,-0.97,-0.93,0,*66
1500069978.4,31521,18.56,73666.3,-0.25,-0.97,-0.97,0,*63
1500069979.63,31522,18.56,73662.8,-0.25,-0.97,-0.93,0,*64
1500069980.86,31523,18.56,73662.8,-0.25,-0.97,-0.97,0,*61
1500069982.1,31524,18.56,73666.3,-0.25,-0.97,-1.01,0,*58
1500069983.35,31525,18.56,73660.8,-0.23,-0.93,-0.97,0,*65
1500069984.58,31526,18.56,73664.8,-0.25,-0.97,-0.97,0,*64
1500069985.8,31527,18.56,73660.5,-0.25,-0.93,-0.97,0,*61
1500069987.03,31528,18.56,73664.5,-0.25,-0.97,-0.97,0,*6A
1500069988.27,31529,18.56,73662.3,-0.25,-0.97,-0.97,0,*6B
1500069989.5,31530,18.56,73660.3,-0.25,-0.97,-0.93,0,*67
1500069990.7,31531,18.56,73662.8,-0.25,-0.85,-0.81,0,*66
1500069991.93,31532,18.56,73660.5,-0.25,-0.85,-0.93,0,*66
1500069993.18,31533,18.56,73664.0,-0.23,-0.85,-0.85,0,*66
1500069994.43,31534,18.56,73662.3,-0.23,-0.85,-0.85,0,*61
1500069995.63,31535,18.56,73662.3,-0.25,-0.93,-0.81,0,*65
1500069996.84,31536,18.56,73666.3,-0.25,-0.81,-0.85,0,*61
1500069998.07,31537,18.56,73664.5,-0.25,-0.85,-0.85,0,*64
1500069999.32,31538,18.56,73656.8,-0.27,-0.89,-0.97,0,*66
1500070000.55,31539,18.56,73662.0,-0.25,-0.93,-0.85,0,*6D
1500070001.77,31540,18.56,73658.5,-0.25,-0.93,-0.93,0,*64
1500070003.0,31541,18.56,73664.0,-0.25,-0.97,-0.93,0,*61
1500070004.23,31542,18.56,73662.5,-0.25,-0.93,-0.93,0,*66
1500070005.44,31543,18.56,73660.3,-0.23,-0.81,-0.73,0,*6C
1500070006.63,31544,18.56,73662.8,-0.25,-0.81,-0.73,0,*6D
1500070007.88,31545,18.56,73660.0,-0.23,-0.85,-0.85,0,*67
1500070009.1,31546,18.56,73658.5,-0.23,-0.81,-0.85,0,*60
1500070010.31,31547,18.56,73658.5,-0.23,-0.81,-0.81,0,*65
1500070011.5,31548,18.56,73652.5,-0.25,-0.81,-0.81,0,*6C
1500070012.75,31549,18.56,73658.5,-0.23,-0.85,-0.85,0,*6B
1500070013.99,31550,18.56,73658.5,-0.23,-0.93,-0.93,0,*63
1500070015.22,31551,18.56,73656.8,-0.25,-0.85,-0.85,0,*64
1500070016.45,31552,18.56,73650.0,-0.23,-0.81,-0.85,0,*65
1500070017.65,31553,18.56,73652.5,-0.25,-0.81,-0.85,0,*62
1500070018.88,31554,18.56,73654.5,-0.25,-0.85,-0.85,0,*61
1500070020.13,31555,18.56,73650.8,-0.23,-0.93,-0.97,0,*62
1500070021.37,31556,18.56,73652.3,-0.23,-0.93,-0.93,0,*65
1500070022.62,31557,18.56,73652.3,-0.23,-0.93,-0.93,0,*64
1500070023.86,31558,18.56,73654.8,-0.23,-0.93,-0.93,0,*6B
1500070025.09,31559,18.56,73656.3,-0.23,-0.81,-0.85,0,*6E
1500070026.34,31560,18.56,73658.8,-0.23,-0.85,-0.85,0,*60
1500070027.57,31561,18.56,73656.5,-0.23,-0.81,-0.85,0,*65
1500070028.79,31562,18.56,73656.5,-0.23,-0.85,-0.81,0,*66
1500070029.98,31563,18.56,73656.8,-0.25,-0.81,-0.81,0,*65
1500070031.19,31564,18.56,73656.8,-0.23,-0.81,-0.81,0,*64
1500070032.39,31565,18.56,73662.8,-0.23,-0.81,-0.81,0,*65
1500070033.6,31566,18.56,73660.3,-0.23,-0.81,-0.73,0,*6B
1500070034.81,31567,18.56,73660.3,-0.23,-0.81,-0.73,0,*6A
1500070036.02,31568,18.56,73666.0,-0.23,-0.81,-0.73,0,*65
1500070037.25,31569,18.56,73664.0,-0.23,-0.73,-0.85,0,*60
1500070038.5,31570,18.56,73664.0,-0.23,-0.85,-0.85,0,*61
1500070039.71,31571,18.56,73664.3,-0.23,-0.81,-0.81,0,*60
1500070040.91,31572,18.56,73666.8,-0.23,-0.81,-0.81,0,*63
1500070042.16,31573,18.56,73664.0,-0.23,-0.97,-0.93,0,*66
1500070043.41,31574,18.56,73664.0,-0.23,-0.93,-0.93,0,*65
1500070044.66,31575,18.56,73666.8,-0.23,-0.97,-0.97,0,*64
1500070045.91,31576,18.56,73662.0,-0.23,-0.93,-0.85,0,*60
1500070047.16,31577,18.56,73660.0,-0.23,-0.85,-0.85,0,*66
1500070048.38,31578,18.56,73666.3,-0.23,-0.85,-0.81,0,*6D
1500070049.64,31579,18.56,73660.5,-0.23,-1.01,-1.13,0,*6B
1500070050.83,31580,18.56,73662.0,-0.25,-1.33,-1.33,0,*68
1500070052.05,31581,18.56,73660.0,-0.23,-1.33,-1.25,0,*68
1500070053.27,31582,18.56,73662.5,-0.25,-1.13,-1.21,0,*6B
1500070054.5,31583,18.56,73662.3,-0.23,-1.21,-1.13,0,*6C
1500070055.74,31584,18.56,73662.8,-0.25,-1.01,-1.01,0,*6C
1500070056.98,31585,18.56,73660.5,-0.25,-1.01,-1.09,0,*65
1500070058.23,31586,18.56,73662.5,-0.25,-1.01,-1.01,0,*6E
1500070059.46,31587,18.56,73660.8,-0.25,-0.97,-0.97,0,*6F
1500070060.68,31588,18.56,73660.0,-0.25,-0.93,-0.97,0,*64
1500070061.93,31589,18.56,73664.8,-0.23,-0.93,-0.93,0,*67
1500070063.16,31590,18.56,73664.5,-0.25,-0.97,-0.97,0,*69
1500070064.39,31591,18.56,73660.0,-0.25,-0.97,-0.97,0,*68
1500070065.65,31592,18.56,73660.0,-0.23,-1.01,-0.97,0,*53
1500070066.9,31593,18.56,73660.8,-0.27,-0.97,-0.97,0,*68
1500070068.11,31594,18.56,73662.0,-0.25,-0.85,-0.81,0,*69
1500070069.29,31595,18.56,73662.3,-0.25,-0.69,-0.73,0,*67
1500070070.48,31596,18.56,73664.8,-0.25,-0.73,-0.73,0,*6F
1500070071.67,31597,18.56,73662.5,-0.25,-0.73,-0.81,0,*63
1500070072.88,31598,18.56,73662.3,-0.23,-0.81,-0.81,0,*67
1500070074.07,31599,18.56,73662.5,-0.25,-0.81,-0.81,0,*60
1500070075.28,31600,18.56,73664.5,-0.23,-0.73,-0.73,0,*65
1500070076.48,31601,18.56,73658.5,-0.23,-0.73,-0.81,0,*69
1500070077.69,31602,18.56,73662.0,-0.23,-0.73,-0.81,0,*6A
1500070078.92,31603,18.56,73660.5,-0.23,-0.85,-0.69,0,*64
1500070080.13,31604,18.56,73658.5,-0.23,-0.81,-0.73,0,*6C
1500070081.32,31605,18.56,73660.0,-0.25,-0.81,-0.73,0,*6B
1500070082.53,31606,18.56,73656.8,-0.23,-0.73,-0.73,0,*63
1500070083.74,31607,18.56,73656.8,-0.23,-0.73,-0.81,0,*6F
1500070084.94,31608,18.56,73658.3,-0.23,-0.81,-0.81,0,*6D
1500070086.15,31609,18.56,73660.8,-0.23,-0.81,-0.81,0,*6C
1500070087.34,31610,18.56,73656.3,-0.25,-0.73,-0.69,0,*69
1500070088.55,31611,18.56,73658.8,-0.23,-0.81,-0.73,0,*68
1500070089.75,31612,18.56,73660.0,-0.23,-0.69,-0.73,0,*6D
1500070090.96,31613,18.56,73660.0,-0.23,-0.73,-0.81,0,*6A
1500070092.14,31614,18.56,73660.3,-0.21,-0.77,-0.77,0,*62
1500070093.32,31615,18.56,73658.5,-0.21,-0.77,-0.77,0,*63
1500070094.5,31616,18.56,73660.0,-0.21,-0.77,-0.77,0,*60
1500070095.68,31617,18.56,73662.3,-0.21,-0.77,-0.77,0,*61
1500070096.86,31618,18.56,73658.5,-0.21,-0.81,-0.77,0,*67
1500070098.04,31619,18.56,73660.3,-0.21,-0.69,-0.77,0,*60
1500070099.22,31620,18.56,73662.3,-0.21,-0.77,-0.65,0,*66
1500070100.4,31621,18.56,73662.0,-0.21,-0.77,-0.77,0,*64
1500070101.58,31622,18.56,73660.3,-0.21,-0.69,-0.77,0,*68
1500070102.76,31623,18.56,73660.5,-0.21,-0.81,-0.77,0,*6F
1500070103.94,31624,18.56,73658.8,-0.21,-0.81,-0.77,0,*68
1500070105.15,31625,18.56,73666.5,-0.21,-0.89,-0.77,0,*61
1500070106.35,31626,18.56,73662.8,-0.21,-0.89,-0.81,0,*6B
1500070107.53,31627,18.56,73662.0,-0.21,-0.81,-0.77,0,*6B